Location: Northam
(31.6525°S, 116.6655°E)
Time: 23:18:57
(UTC+08:00)

Envisat - Pass Details

Date: 15 May 2021
Orbit: 764 x 766 km, 98.1° (Epoch: 14 June)

Event Time Altitude Azimuth Distance (km) Brightness Sun altitude
Rises 04:44:27 0° 21° (NNE) 3,216 6.6 -27.5°
Reaches altitude 10° 04:46:45 10° 23° (NNE) 2,298 5.8 -27.1°
Maximum altitude 04:51:46 67° 104° (ESE) 838 3.3 -26.0°
Enters shadow 04:55:26 19° 183° (S) 1,773 4.8 -25.2°
